Weather in Plesná

Czech Republic     50°13′06″N   12°20′53″E
temp.,
°C
wind,
m/s
gust,
m/s
humid.,
%
clouds,
%
prec.,
mm/h
press.,
hPa
HPBL,
m
6 may, thu
thu623:00+2wsw41190100 0.1 1012605
02:00+1wsw3109489 0.1 1012446
05:00+2sw41092100 0.0 1011632
08:00+2sw4989100 0.1 1011744
11:00+5wsw5871100 0.1 10101085
14:00+6sw478199 0.8 1009851
17:00+8sw3664100 0.1 10071091
20:00+4s3697100 1.4 1006794
7 may, fri
fri723:00+4s31198100 3.1 1004915
02:00+6sw51397100 7.2 10021307
05:00+4w61198100 0.6 10051021
08:00+2w61298100 0.9 1008921
11:00+2w6109184 0.3 10121056
14:00+6w7106386 0.9 10131754
17:00+4wnw61088100 1.3 10141173
20:00+2wnw399310 2.4 1018680
8 may, sat
sat823:000w26965 0.0 1020122
02:00−1wsw22958 0.0 102137
05:00−2ssw12955 0.0 102219
08:00+3ssw248451 0.0 1022261
11:00+9sw354574 0.0 10201960
14:00+12sw353642 0.0 10182183
17:00+13ssw353744 0.0 10161747
20:00+8s2367100 0.0 101642
9 may, sun
sun923:00+5se247978 0.0 101768
02:00+4se238436 0.0 101668
05:00+3se238747 0.0 101654
08:00+7se266899 0.0 1015196
11:00+16sse474864 0.0 1012585
14:00+21se56387 0.0 10101133
17:00+20se4750100 0.0 1009882
20:00+15se4107683 0.0 1008318
10 may, mon
mon1023:00+10ese3989100 0.0 1010184
02:00+8ese26955 0.0 1010117
05:00+7se249787 0.0 101085
08:00+11sse24805 0.0 1010191
11:00+19sse34570 0.0 1009602
14:00+24sse22446 0.0 10081371
17:00+23ese3348100 0.0 10071708
20:00+18e31075100 0.1 1007393